Hourly Weather Lisburn

Today, 29 October, Thursday

Time Temperature Precipitation Wind Pressure Humidity
00:00 +5°C° 0 mm 5 mps 746 mmHg 85%
01:00 +5°C° 0 mm 5 mps 747 mmHg 87%
02:00 +5°C° 0 mm 4 mps 747 mmHg 88%
03:00 +4°C° 0 mm 4 mps 748 mmHg 89%
04:00 +5°C° 0.3 mm 4 mps 747 mmHg 91%
05:00 +6°C° 0.3 mm 4 mps 747 mmHg 93%
06:00 +7°C° 0 mm 5 mps 746 mmHg 96%
07:00 +8°C° 1.7 mm 5 mps 746 mmHg 96%
08:00 +8°C° 1.7 mm 5 mps 745 mmHg 96%
09:00 +9°C° 1.7 mm 6 mps 744 mmHg 97%
10:00 +10°C° 1 mm 6 mps 744 mmHg 96%
11:00 +11°C° 1 mm 7 mps 744 mmHg 95%
12:00 +12°C° 1 mm 7 mps 743 mmHg 94%
13:00 +12°C° 0.3 mm 8 mps 743 mmHg 93%
14:00 +13°C° 0.3 mm 8 mps 743 mmHg 92%
15:00 +13°C° 0.3 mm 8 mps 744 mmHg 91%
16:00 +13°C° 0.1 mm 8 mps 744 mmHg 91%
17:00 +14°C° 0.1 mm 7 mps 744 mmHg 92%
18:00 +14°C° 0.1 mm 7 mps 744 mmHg 92%
19:00 +14°C° 0.2 mm 7 mps 744 mmHg 92%
20:00 +14°C° 0.2 mm 7 mps 745 mmHg 92%
21:00 +14°C° 0.2 mm 7 mps 745 mmHg 92%
22:00 +14°C° 0.3 mm 7 mps 745 mmHg 93%
23:00 +14°C° 0.3 mm 6 mps 745 mmHg 94%

Tomorrow, 30 October, Friday

Time Temperature Precipitation Wind Pressure Humidity
00:00 +14°C° 0.3 mm 6 mps 746 mmHg 94%
01:00 +13°C° 0.2 mm 6 mps 746 mmHg 93%
02:00 +13°C° 0.2 mm 5 mps 747 mmHg 93%
03:00 +13°C° 0.2 mm 5 mps 747 mmHg 92%
04:00 +12°C° 0 mm 4 mps 748 mmHg 92%
05:00 +11°C° 0 mm 4 mps 749 mmHg 92%
06:00 +10°C° 0 mm 3 mps 750 mmHg 92%
07:00 +10°C° 0 mm 3 mps 751 mmHg 91%
08:00 +10°C° 0 mm 3 mps 751 mmHg 90%
09:00 +10°C° 0 mm 3 mps 752 mmHg 89%
10:00 +10°C° 0 mm 3 mps 753 mmHg 85%
11:00 +10°C° 0 mm 3 mps 753 mmHg 80%
12:00 +11°C° 0 mm 3 mps 754 mmHg 76%
13:00 +11°C° 0 mm 3 mps 754 mmHg 76%
14:00 +10°C° 0 mm 2 mps 754 mmHg 76%
15:00 +10°C° 0 mm 2 mps 755 mmHg 77%
16:00 +10°C° 0 mm 1 mps 755 mmHg 79%
17:00 +10°C° 0 mm 1 mps 755 mmHg 80%
18:00 +8°C° 0 mm 0 mps 754 mmHg 82%
19:00 +9°C° 0.2 mm 1 mps 754 mmHg 85%
20:00 +8°C° 0.2 mm 2 mps 753 mmHg 87%
21:00 +8°C° 0.2 mm 3 mps 753 mmHg 89%
22:00 +8°C° 1.7 mm 4 mps 751 mmHg 92%
23:00 +8°C° 1.7 mm 5 mps 750 mmHg 94%

Day after tomorrow, 31 October, Saturday

Time Temperature Precipitation Wind Pressure Humidity
00:00 +9°C° 1.7 mm 6 mps 748 mmHg 97%
01:00 +9°C° 0.5 mm 6 mps 747 mmHg 97%
02:00 +10°C° 0.5 mm 6 mps 745 mmHg 97%
03:00 +10°C° 0.5 mm 6 mps 744 mmHg 97%
04:00 +11°C° 0.4 mm 6 mps 743 mmHg 95%
05:00 +12°C° 0.4 mm 7 mps 743 mmHg 94%
06:00 +12°C° 0.4 mm 7 mps 742 mmHg 92%
07:00 +11°C° 0.1 mm 8 mps 741 mmHg 88%
08:00 +10°C° 0.1 mm 9 mps 741 mmHg 85%
09:00 +7°C° 0.1 mm 10 mps 741 mmHg 81%
10:00 +7°C° 0.1 mm 11 mps 741 mmHg 80%
11:00 +7°C° 0.1 mm 12 mps 742 mmHg 79%
12:00 +7°C° 0.1 mm 12 mps 743 mmHg 78%
13:00 +7°C° 0 mm 11 mps 744 mmHg 77%
14:00 +7°C° 0 mm 11 mps 745 mmHg 77%
15:00 +7°C° 0 mm 10 mps 746 mmHg 77%
16:00 +6°C° 0 mm 8 mps 746 mmHg 77%
17:00 +5°C° 0 mm 7 mps 747 mmHg 77%
18:00 +4°C° 0 mm 6 mps 748 mmHg 77%
19:00 +5°C° 0 mm 5 mps 747 mmHg 80%
20:00 +5°C° 0 mm 4 mps 747 mmHg 82%
21:00 +5°C° 0 mm 4 mps 747 mmHg 85%
22:00 +5°C° 0 mm 3 mps 746 mmHg 85%
23:00 +5°C° 0 mm 3 mps 745 mmHg 85%

1 November, Sunday

Time Temperature Precipitation Wind Pressure Humidity
00:00 +7°C° 0 mm 3 mps 744 mmHg 85%
01:00 +6°C° 0.4 mm 4 mps 742 mmHg 88%
02:00 +6°C° 0.4 mm 4 mps 741 mmHg 90%
03:00 +6°C° 0.4 mm 5 mps 739 mmHg 93%
04:00 +7°C° 2.3 mm 6 mps 738 mmHg 94%
05:00 +8°C° 2.3 mm 7 mps 736 mmHg 95%
06:00 +9°C° 2.3 mm 8 mps 734 mmHg 96%
07:00 +8°C° 0.5 mm 9 mps 735 mmHg 91%
08:00 +7°C° 0.5 mm 10 mps 735 mmHg 86%
09:00 +6°C° 0.5 mm 11 mps 736 mmHg 81%
10:00 +7°C° 0 mm 10 mps 737 mmHg 78%
11:00 +7°C° 0 mm 10 mps 738 mmHg 76%
12:00 +8°C° 0 mm 9 mps 739 mmHg 73%
13:00 +9°C° 0 mm 8 mps 738 mmHg 75%
14:00 +7°C° 0 mm 8 mps 738 mmHg 76%
15:00 +8°C° 0 mm 7 mps 738 mmHg 77%
16:00 +8°C° 0.3 mm 6 mps 738 mmHg 82%
17:00 +7°C° 0.3 mm 6 mps 737 mmHg 86%
18:00 +6°C° 0.3 mm 5 mps 737 mmHg 91%
19:00 +6°C° 0.2 mm 5 mps 737 mmHg 91%
20:00 +6°C° 0.2 mm 5 mps 737 mmHg 91%
21:00 +5°C° 0.2 mm 5 mps 737 mmHg 91%
22:00 +4°C° 0 mm 6 mps 738 mmHg 90%
23:00 +4°C° 0 mm 6 mps 738 mmHg 88%

2 November, Monday

Time Temperature Precipitation Wind Pressure Humidity
00:00 +3°C° 0 mm 6 mps 739 mmHg 86%
01:00 +3°C° 0 mm 6 mps 739 mmHg 86%
02:00 +3°C° 0 mm 6 mps 739 mmHg 86%
03:00 +3°C° 0 mm 6 mps 739 mmHg 86%
04:00 +3°C° 0 mm 6 mps 739 mmHg 86%
05:00 +3°C° 0 mm 6 mps 740 mmHg 86%
06:00 +3°C° 0 mm 6 mps 740 mmHg 86%
07:00 +3°C° 0 mm 7 mps 740 mmHg 85%
08:00 +3°C° 0 mm 7 mps 740 mmHg 84%
09:00 +3°C° 0 mm 7 mps 741 mmHg 83%
10:00 +4°C° 0.1 mm 8 mps 741 mmHg 79%
11:00 +3°C° 0.1 mm 9 mps 741 mmHg 76%
12:00 +5°C° 0.1 mm 10 mps 741 mmHg 72%
13:00 +4°C° 0 mm 11 mps 740 mmHg 73%
14:00 +4°C° 0 mm 12 mps 740 mmHg 73%
15:00 +4°C° 0 mm 13 mps 739 mmHg 74%
16:00 +4°C° 0.1 mm 13 mps 739 mmHg 73%
17:00 +5°C° 0.1 mm 13 mps 739 mmHg 73%
18:00 +5°C° 0.1 mm 13 mps 739 mmHg 73%
19:00 +5°C° 0.2 mm 13 mps 739 mmHg 76%
20:00 +5°C° 0.2 mm 12 mps 740 mmHg 79%
21:00 +5°C° 0.2 mm 12 mps 740 mmHg 82%
22:00 +6°C° 0 mm 10 mps 741 mmHg 83%
23:00 +6°C° 0 mm 9 mps 742 mmHg 84%

3 November, Tuesday

Time Temperature Precipitation Wind Pressure Humidity
00:00 +6°C° 0 mm 8 mps 743 mmHg 85%
01:00 +6°C° 0.1 mm 7 mps 744 mmHg 86%
02:00 +7°C° 0.1 mm 6 mps 745 mmHg 87%
03:00 +6°C° 0.1 mm 5 mps 746 mmHg 88%
04:00 +6°C° 0 mm 5 mps 747 mmHg 88%
05:00 +5°C° 0 mm 6 mps 749 mmHg 88%
06:00 +5°C° 0 mm 6 mps 751 mmHg 88%
07:00 +5°C° 0 mm 6 mps 752 mmHg 87%
08:00 +5°C° 0 mm 6 mps 754 mmHg 85%
09:00 +5°C° 0 mm 6 mps 755 mmHg 84%
10:00 +7°C° 0 mm 6 mps 757 mmHg 80%
11:00 +8°C° 0 mm 7 mps 758 mmHg 77%
12:00 +8°C° 0 mm 7 mps 759 mmHg 73%
13:00 +8°C° 0 mm 6 mps 760 mmHg 73%
14:00 +8°C° 0 mm 6 mps 761 mmHg 74%
15:00 +8°C° 0 mm 5 mps 762 mmHg 75%
16:00 +7°C° 0 mm 5 mps 763 mmHg 78%
17:00 +6°C° 0 mm 5 mps 764 mmHg 82%
18:00 +5°C° 0 mm 4 mps 765 mmHg 86%
19:00 +4°C° 0 mm 4 mps 766 mmHg 86%
20:00 +4°C° 0 mm 4 mps 766 mmHg 86%
21:00 +4°C° 0 mm 4 mps 767 mmHg 86%
22:00 +4°C° 0 mm 4 mps 767 mmHg 87%
23:00 +4°C° 0 mm 4 mps 767 mmHg 88%
Show more